Regional Weather Roundup
Issued by NWS

Home | Current Version | Previous Version | Graphics & Text | Print | Product List | Glossary On
Versions: 1 2 3 4 5 6 7 8 9 10 11 12 13 14 15 16 17 18 19 20 21 22 23 24 25 26 27 28 29 30 31 32 33 34 35 36 37 38 39 40 41 42 43 44 45 46 47 48 49 50
000
ASUS43 KFSD 190510
RWRSD

WEATHER ROUNDUP FOR SOUTH DAKOTA
NATIONAL WEATHER SERVICE SIOUX FALLS SD
1100 PM CST SAT NOV 18 2017

NOTE: "FAIR" INDICATES FEW OR NO CLOUDS BELOW 12,000 FEET WITH NO
SIGNIFICANT WEATHER AND/OR OBSTRUCTIONS TO VISIBILITY.


SDZ001>005-009-010-012>017-190600-
NORTHWEST AND NORTH CENTRAL SOUTH DAKOTA

CITY           SKY/WX    TMP DP  RH WIND       PRES   REMARKS
BUFFALO          N/A     28  20  71 W9        30.01F WCI  19
FAITH            N/A     30  22  72 W9        30.10S WCI  22
MOBRIDGE       CLOUDY    23  16  74 S3        30.06F
$$

SDZ012>016-024>037-041>051-057-063-072>074-190600-
SOUTHWEST AND SOUTH CENTRAL SOUTH DAKOTA

CITY           SKY/WX    TMP DP  RH WIND       PRES   REMARKS
RAPID CTY ARPT CLEAR     26  17  68 CALM      30.14F
PIERRE         CLEAR     25  21  85 SW6       30.12S WCI  18
CUSTER         CLEAR     25  10  53 W3        30.11S
ELLSWORTH AFB  CLEAR     29  18  62 SW7       30.12F WCI  22
PHILIP         CLEAR     28  23  81 W5        30.15S WCI  23
PINE RIDGE     CLOUDY    19  15  84 CALM      30.18F
SPEARFISH      FAIR      34  16  47 SW14      30.10F WCI  24
WINNER         FAIR      29  21  72 SW7       30.15F WCI  22
$$

SDZ004>011-016>023-039-040-190600-
NORTHEAST SOUTH DAKOTA

CITY           SKY/WX    TMP DP  RH WIND       PRES   REMARKS
ABERDEEN       CLEAR     16  13  88 W7        30.10F WCI   6
WATERTOWN      CLEAR     20  15  81 W3        30.07S
BROOKINGS      CLEAR     20  14  77 NW5       30.10F WCI  13
SISSETON         N/A     16  10  77 W5        30.08F WCI   9
$$

SDZ017-020-022-023-036>040-048>070-190600-
SOUTHEAST SOUTH DAKOTA

CITY           SKY/WX    TMP DP  RH WIND       PRES   REMARKS
SIOUX FALLS    CLEAR     25  16  68 W9        30.14R WCI  15
HURON          CLEAR     22  15  75 W6        30.14S WCI  14
CHAMBERLAIN    CLEAR     22  20  91 CALM      30.16R
MITCHELL       CLEAR     22  16  78 W8        30.18R WCI  12
YANKTON        CLEAR     26  19  74 W8        30.18S WCI  18
$$

ABBREVIATIONS USED IN REMARKS
   TC - TEMPERATURE IN CELSIUS
  WCI - WIND CHILL INDEX
   HX - HEAT INDEX
  VSB - VISIBILITY





USA.gov is the U.S. government's official web portal to all federal, state and local government web resources and services.